Time,TemperatureF,DewpointF,PressureIn,WindDirection,WindDirectionDegrees,WindSpeedMPH,WindSpeedGustMPH,Humidity,HourlyPrecipIn,Conditions,Clouds,dailyrainin,SoftwareType,DateUTC
2015-08-29 00:00:00,64.7,62.9,30.04,South,186,0.0,0.0,94,0.00,,---,0.00,VWS V12.07,2015-08-29 04:00:00,
2015-08-29 00:10:00,64.5,63.0,30.05,South,186,0.0,0.0,95,0.00,,---,0.00,VWS V12.07,2015-08-29 04:10:00,
2015-08-29 00:20:00,64.3,62.5,30.06,South,186,0.0,0.0,94,0.00,,---,0.00,VWS V12.07,2015-08-29 04:20:00,
2015-08-29 00:30:00,64.2,62.7,30.06,South,186,0.0,0.0,95,0.00,,---,0.00,VWS V12.07,2015-08-29 04:30:00,
2015-08-29 00:40:00,63.9,62.4,30.05,South,186,0.0,0.0,95,0.00,,---,0.00,VWS V12.07,2015-08-29 04:40:00,
2015-08-29 00:50:00,63.5,62.0,30.04,South,186,0.0,0.0,95,0.00,,---,0.00,VWS V12.07,2015-08-29 04:50:00,
2015-08-29 01:00:00,63.4,62.0,30.04,South,186,0.0,0.0,95,0.00,,---,0.00,VWS V12.07,2015-08-29 05:00:00,
2015-08-29 01:10:00,63.1,61.7,30.04,South,186,0.0,0.0,95,0.00,,---,0.00,VWS V12.07,2015-08-29 05:10:00,
2015-08-29 01:20:00,62.9,61.8,30.04,South,186,0.0,0.0,96,0.00,,---,0.00,VWS V12.07,2015-08-29 05:20:00,
2015-08-29 01:30:00,62.9,61.8,30.04,South,186,0.0,0.0,96,0.00,,---,0.00,VWS V12.07,2015-08-29 05:30:00,
2015-08-29 01:40:00,62.9,62.0,30.04,South,186,0.0,0.0,97,0.00,,---,0.00,VWS V12.07,2015-08-29 05:40:00,
2015-08-29 01:50:00,62.9,62.0,30.04,South,186,0.0,0.0,97,0.00,,---,0.00,VWS V12.07,2015-08-29 05:50:00,
2015-08-29 02:00:00,62.7,61.8,30.04,South,186,0.0,0.0,97,0.00,,---,0.00,VWS V12.07,2015-08-29 06:00:00,
2015-08-29 02:10:00,62.7,61.8,30.03,South,186,0.0,0.0,97,0.00,,---,0.00,VWS V12.07,2015-08-29 06:10:00,
2015-08-29 02:20:00,62.6,61.7,30.03,South,186,0.0,0.0,97,0.00,,---,0.00,VWS V12.07,2015-08-29 06:20:00,
2015-08-29 02:30:00,62.4,61.5,30.03,South,186,0.0,0.0,97,0.00,,---,0.00,VWS V12.07,2015-08-29 06:30:00,
2015-08-29 02:40:00,62.4,61.8,30.02,South,186,0.0,0.0,98,0.00,,---,0.00,VWS V12.07,2015-08-29 06:40:00,
2015-08-29 02:50:00,62.6,62.0,30.02,South,186,0.0,0.0,98,0.00,,---,0.00,VWS V12.07,2015-08-29 06:50:00,
2015-08-29 03:10:00,62.7,62.4,30.03,South,186,0.0,0.0,99,0.00,,---,0.00,VWS V12.07,2015-08-29 07:10:00,
2015-08-29 03:20:00,62.6,62.0,30.02,South,186,0.0,0.0,98,0.00,,---,0.00,VWS V12.07,2015-08-29 07:20:00,
2015-08-29 03:30:00,62.3,61.7,30.02,South,186,0.0,0.0,98,0.00,,---,0.00,VWS V12.07,2015-08-29 07:30:00,
2015-08-29 03:40:00,62.4,62.1,30.03,South,186,0.0,1.0,99,0.00,,---,0.00,VWS V12.07,2015-08-29 07:40:00,
2015-08-29 03:50:00,62.4,62.1,30.03,South,186,0.0,0.0,99,0.00,,---,0.00,VWS V12.07,2015-08-29 07:50:00,
2015-08-29 04:00:00,62.4,62.1,30.03,South,186,0.0,0.0,99,0.00,,---,0.00,VWS V12.07,2015-08-29 08:00:00,
2015-08-29 04:10:00,62.3,62.0,30.03,South,186,0.0,0.0,99,0.00,,---,0.00,VWS V12.07,2015-08-29 08:10:00,
2015-08-29 04:20:00,62.3,62.0,30.03,South,186,0.0,0.0,99,0.00,,---,0.00,VWS V12.07,2015-08-29 08:20:00,
2015-08-29 04:30:00,62.1,61.8,30.03,South,186,0.0,0.0,99,0.00,,---,0.00,VWS V12.07,2015-08-29 08:30:00,
2015-08-29 04:40:00,62.0,61.7,30.03,South,186,0.0,0.0,99,0.00,,---,0.00,VWS V12.07,2015-08-29 08:40:00,
2015-08-29 04:50:00,62.4,62.1,30.03,South,186,0.0,0.0,99,0.00,,---,0.00,VWS V12.07,2015-08-29 08:50:00,
2015-08-29 05:00:00,62.9,62.9,30.03,South,186,0.0,0.0,100,0.00,,---,0.00,VWS V12.07,2015-08-29 09:00:00,
2015-08-29 05:10:00,62.6,62.3,30.03,South,186,0.0,0.0,99,0.00,,---,0.00,VWS V12.07,2015-08-29 09:10:00,
2015-08-29 05:20:00,62.1,61.8,30.03,South,186,0.0,0.0,99,0.00,,---,0.00,VWS V12.07,2015-08-29 09:20:00,
2015-08-29 05:30:00,62.0,61.7,30.03,South,186,0.0,0.0,99,0.00,,---,0.00,VWS V12.07,2015-08-29 09:30:00,
2015-08-29 05:40:00,62.0,61.7,30.04,South,186,0.0,0.0,99,0.00,,---,0.00,VWS V12.07,2015-08-29 09:40:00,
2015-08-29 05:50:00,62.1,62.1,30.04,South,186,0.0,0.0,100,0.00,,---,0.00,VWS V12.07,2015-08-29 09:50:00,
2015-08-29 06:00:00,62.0,61.7,30.04,South,186,0.0,0.0,99,0.00,,---,0.00,VWS V12.07,2015-08-29 10:00:00,
2015-08-29 06:10:00,62.1,62.1,30.05,South,186,0.0,0.0,100,0.00,,---,0.00,VWS V12.07,2015-08-29 10:10:00,
2015-08-29 06:20:00,62.4,62.4,30.05,South,186,0.0,0.0,100,0.00,,---,0.00,VWS V12.07,2015-08-29 10:20:00,
2015-08-29 06:30:00,62.6,62.6,30.05,South,186,0.0,0.0,100,0.00,,---,0.00,VWS V12.07,2015-08-29 10:30:00,
2015-08-29 06:40:00,62.6,62.6,30.06,South,186,0.0,0.0,100,0.00,,---,0.00,VWS V12.07,2015-08-29 10:40:00,
2015-08-29 06:50:00,62.4,62.4,30.07,South,186,0.0,0.0,100,0.00,,---,0.00,VWS V12.07,2015-08-29 10:50:00,
2015-08-29 07:00:00,62.4,62.4,30.07,South,186,0.0,0.0,100,0.00,,---,0.00,VWS V12.07,2015-08-29 11:00:00,
2015-08-29 07:10:00,62.3,62.3,30.07,South,186,0.0,0.0,100,0.00,,---,0.00,VWS V12.07,2015-08-29 11:10:00,
2015-08-29 07:20:00,62.6,62.6,30.07,South,186,0.0,0.0,100,0.00,,---,0.00,VWS V12.07,2015-08-29 11:20:00,
2015-08-29 07:30:00,62.6,62.6,30.07,South,186,0.0,0.0,100,0.00,,---,0.00,VWS V12.07,2015-08-29 11:30:00,
2015-08-29 07:40:00,62.6,62.6,30.08,South,186,0.0,0.0,100,0.00,,---,0.00,VWS V12.07,2015-08-29 11:40:00,
2015-08-29 07:50:00,62.6,62.6,30.09,South,186,0.0,0.0,100,0.00,,---,0.00,VWS V12.07,2015-08-29 11:50:00,
2015-08-29 08:00:00,62.7,62.7,30.09,South,186,0.0,0.0,100,0.00,,---,0.00,VWS V12.07,2015-08-29 12:00:00,
2015-08-29 08:10:00,62.9,62.9,30.09,South,186,0.0,0.0,100,0.00,,---,0.00,VWS V12.07,2015-08-29 12:10:00,
2015-08-29 08:20:00,63.2,63.2,30.09,South,186,0.0,0.0,100,0.00,,---,0.00,VWS V12.07,2015-08-29 12:20:00,
2015-08-29 08:30:00,63.5,63.5,30.09,South,186,0.0,0.0,100,0.00,,---,0.00,VWS V12.07,2015-08-29 12:30:00,
2015-08-29 08:40:00,63.9,63.9,30.10,South,186,0.0,0.0,100,0.00,,---,0.00,VWS V12.07,2015-08-29 12:40:00,
2015-08-29 08:50:00,64.2,64.2,30.10,South,186,0.0,0.0,100,0.00,,---,0.00,VWS V12.07,2015-08-29 12:50:00,
2015-08-29 09:00:00,64.7,64.7,30.10,South,186,0.0,0.0,100,0.00,,---,0.00,VWS V12.07,2015-08-29 13:00:00,
2015-08-29 09:10:00,65.3,65.3,30.09,South,186,0.0,0.0,100,0.00,,---,0.00,VWS V12.07,2015-08-29 13:10:00,
2015-08-29 09:20:00,65.6,65.6,30.09,South,186,0.0,0.0,100,0.00,,---,0.00,VWS V12.07,2015-08-29 13:20:00,
2015-08-29 09:30:00,66.3,66.3,30.09,South,186,0.0,0.0,100,0.00,,---,0.00,VWS V12.07,2015-08-29 13:30:00,
2015-08-29 09:40:00,66.9,66.9,30.09,South,186,0.0,0.0,100,0.00,,---,0.00,VWS V12.07,2015-08-29 13:40:00,
2015-08-29 09:50:00,67.6,67.6,30.10,South,186,0.0,0.0,100,0.00,,---,0.00,VWS V12.07,2015-08-29 13:50:00,
2015-08-29 10:00:00,68.4,68.4,30.10,South,186,0.0,0.0,100,0.00,,---,0.00,VWS V12.07,2015-08-29 14:00:00,
2015-08-29 10:10:00,69.1,69.1,30.10,South,186,0.0,0.0,100,0.00,,---,0.00,VWS V12.07,2015-08-29 14:10:00,
2015-08-29 10:20:00,69.4,69.4,30.10,South,186,0.0,0.0,100,0.00,,---,0.00,VWS V12.07,2015-08-29 14:20:00,
2015-08-29 10:30:00,70.1,70.1,30.10,South,186,0.0,0.0,100,0.00,,---,0.00,VWS V12.07,2015-08-29 14:30:00,
2015-08-29 10:40:00,70.8,70.5,30.10,South,186,0.0,0.0,99,0.00,,---,0.00,VWS V12.07,2015-08-29 14:40:00,
2015-08-29 10:50:00,71.3,70.1,30.10,South,173,0.0,2.0,96,0.00,,---,0.00,VWS V12.07,2015-08-29 14:50:00,
2015-08-29 11:00:00,72.1,67.7,30.10,South,173,0.0,2.0,86,0.00,,---,0.00,VWS V12.07,2015-08-29 15:00:00,
2015-08-29 11:10:00,73.7,67.9,30.09,South,173,0.0,0.0,82,0.00,,---,0.00,VWS V12.07,2015-08-29 15:10:00,
2015-08-29 11:20:00,75.3,66.4,30.09,SSW,200,0.0,3.0,74,0.00,,---,0.00,VWS V12.07,2015-08-29 15:20:00,
2015-08-29 11:30:00,75.4,65.8,30.09,SSE,167,3.0,4.0,72,0.00,,---,0.00,VWS V12.07,2015-08-29 15:30:00,
2015-08-29 11:40:00,75.4,65.3,30.09,SSW,202,4.0,4.0,71,0.00,,---,0.00,VWS V12.07,2015-08-29 15:40:00,
2015-08-29 11:50:00,76.1,66.0,30.09,SSE,163,0.0,2.0,71,0.00,,---,0.00,VWS V12.07,2015-08-29 15:50:00,
2015-08-29 12:00:00,76.1,63.5,30.09,SSE,159,0.0,6.0,65,0.00,,---,0.00,VWS V12.07,2015-08-29 16:00:00,
2015-08-29 12:10:00,75.8,64.5,30.09,SW,219,0.0,1.0,68,0.00,,---,0.00,VWS V12.07,2015-08-29 16:10:00,
2015-08-29 12:20:00,75.4,62.4,30.10,SW,219,1.0,1.0,64,0.00,,---,0.00,VWS V12.07,2015-08-29 16:20:00,
2015-08-29 12:30:00,75.4,61.0,30.10,SSW,194,0.0,5.0,61,0.00,,---,0.00,VWS V12.07,2015-08-29 16:30:00,
2015-08-29 12:40:00,75.1,61.2,30.09,SE,125,0.0,2.0,62,0.00,,---,0.00,VWS V12.07,2015-08-29 16:40:00,
2015-08-29 12:50:00,75.1,63.0,30.09,ESE,115,0.0,1.0,66,0.00,,---,0.00,VWS V12.07,2015-08-29 16:50:00,
2015-08-29 13:00:00,75.4,62.8,30.09,ESE,120,0.0,5.0,65,0.00,,---,0.00,VWS V12.07,2015-08-29 17:00:00,
2015-08-29 13:10:00,75.3,64.0,30.09,South,177,0.0,2.0,68,0.00,,---,0.00,VWS V12.07,2015-08-29 17:10:00,
2015-08-29 13:20:00,75.6,61.7,30.08,SSE,163,0.0,0.0,62,0.00,,---,0.00,VWS V12.07,2015-08-29 17:20:00,
2015-08-29 13:30:00,75.6,60.3,30.08,South,174,4.0,5.0,59,0.00,,---,0.00,VWS V12.07,2015-08-29 17:30:00,
2015-08-29 13:40:00,76.3,60.0,30.08,South,173,6.0,7.0,57,0.00,,---,0.00,VWS V12.07,2015-08-29 17:40:00,
2015-08-29 13:50:00,77.0,63.5,30.07,ENE,71,0.0,0.0,63,0.00,,---,0.00,VWS V12.07,2015-08-29 17:50:00,
2015-08-29 14:00:00,76.8,60.4,30.07,ENE,57,0.0,7.0,57,0.00,,---,0.00,VWS V12.07,2015-08-29 18:00:00,
2015-08-29 14:10:00,77.0,59.6,30.07,East,87,1.0,6.0,55,0.00,,---,0.00,VWS V12.07,2015-08-29 18:10:00,
2015-08-29 14:20:00,77.0,62.5,30.05,South,183,3.0,5.0,61,0.00,,---,0.00,VWS V12.07,2015-08-29 18:20:00,
2015-08-29 14:30:00,76.5,62.1,30.05,SW,231,4.0,9.0,61,0.00,,---,0.00,VWS V12.07,2015-08-29 18:30:00,
2015-08-29 14:40:00,77.4,63.4,30.05,SSE,149,0.0,5.0,62,0.00,,---,0.00,VWS V12.07,2015-08-29 18:40:00,
2015-08-29 14:50:00,78.3,62.8,30.04,SSW,209,0.0,1.0,59,0.00,,---,0.00,VWS V12.07,2015-08-29 18:50:00,
2015-08-29 15:00:00,78.8,61.8,30.04,SSE,160,5.0,6.0,56,0.00,,---,0.00,VWS V12.07,2015-08-29 19:00:00,
2015-08-29 15:10:00,78.3,62.3,30.03,SSW,193,2.0,5.0,58,0.00,,---,0.00,VWS V12.07,2015-08-29 19:10:00,
2015-08-29 15:20:00,79.0,63.0,30.02,SSW,206,0.0,1.0,58,0.00,,---,0.00,VWS V12.07,2015-08-29 19:20:00,
2015-08-29 15:30:00,78.5,62.0,30.02,South,173,1.0,4.0,57,0.00,,---,0.00,VWS V12.07,2015-08-29 19:30:00,
2015-08-29 15:40:00,77.0,62.1,30.02,South,171,0.0,7.0,60,0.00,,---,0.00,VWS V12.07,2015-08-29 19:40:00,
2015-08-29 15:50:00,77.4,61.5,30.02,SE,134,0.0,0.0,58,0.00,,---,0.00,VWS V12.07,2015-08-29 19:50:00,
2015-08-29 16:00:00,77.0,61.6,30.02,SW,217,0.0,6.0,59,0.00,,---,0.00,VWS V12.07,2015-08-29 20:00:00,
2015-08-29 16:10:00,77.2,57.7,30.02,South,171,1.0,6.0,51,0.00,,---,0.00,VWS V12.07,2015-08-29 20:10:00,
2015-08-29 16:20:00,77.6,60.7,30.01,SSE,153,7.0,7.0,56,0.00,,---,0.00,VWS V12.07,2015-08-29 20:20:00,
2015-08-29 16:30:00,77.6,63.1,30.01,South,189,0.0,7.0,61,0.00,,---,0.00,VWS V12.07,2015-08-29 20:30:00,
2015-08-29 16:40:00,77.9,60.5,30.01,SSE,155,2.0,4.0,55,0.00,,---,0.00,VWS V12.07,2015-08-29 20:40:00,
2015-08-29 16:50:00,77.4,61.0,30.00,South,173,2.0,3.0,57,0.00,,---,0.00,VWS V12.07,2015-08-29 20:50:00,
2015-08-29 17:00:00,76.5,62.5,30.00,South,179,0.0,4.0,62,0.00,,---,0.00,VWS V12.07,2015-08-29 21:00:00,
2015-08-29 17:10:00,76.0,64.3,30.00,SSE,151,0.0,2.0,67,0.00,,---,0.00,VWS V12.07,2015-08-29 21:10:00,
2015-08-29 17:20:00,75.4,62.8,30.00,South,180,0.0,1.0,65,0.00,,---,0.00,VWS V12.07,2015-08-29 21:20:00,
2015-08-29 17:30:00,74.9,66.1,30.00,South,180,0.0,2.0,74,0.00,,---,0.00,VWS V12.07,2015-08-29 21:30:00,
2015-08-29 17:40:00,74.0,65.2,30.00,SSW,196,1.0,5.0,74,0.00,,---,0.00,VWS V12.07,2015-08-29 21:40:00,
2015-08-29 17:50:00,73.5,63.5,30.00,SSW,209,0.0,1.0,71,0.00,,---,0.00,VWS V12.07,2015-08-29 21:50:00,
2015-08-29 18:00:00,73.2,65.2,30.00,SSW,209,0.0,1.0,76,0.00,,---,0.00,VWS V12.07,2015-08-29 22:00:00,
2015-08-29 18:10:00,72.3,64.7,30.01,SSW,199,0.0,2.0,77,0.00,,---,0.00,VWS V12.07,2015-08-29 22:10:00,
2015-08-29 18:20:00,72.0,64.8,30.00,South,182,0.0,0.0,78,0.00,,---,0.00,VWS V12.07,2015-08-29 22:20:00,
2015-08-29 18:30:00,71.6,65.1,30.00,South,176,0.0,0.0,80,0.00,,---,0.00,VWS V12.07,2015-08-29 22:30:00,
2015-08-29 18:40:00,71.3,65.5,30.00,South,176,0.0,0.0,82,0.00,,---,0.00,VWS V12.07,2015-08-29 22:40:00,
2015-08-29 18:50:00,71.1,66.0,30.00,East,80,0.0,0.0,84,0.00,,---,0.00,VWS V12.07,2015-08-29 22:50:00,
2015-08-29 19:00:00,71.1,65.7,30.00,East,80,0.0,0.0,83,0.00,,---,0.00,VWS V12.07,2015-08-29 23:00:00,
2015-08-29 19:10:00,70.9,65.8,30.00,East,80,0.0,0.0,84,0.00,,---,0.00,VWS V12.07,2015-08-29 23:10:00,
2015-08-29 19:20:00,70.8,66.1,30.00,East,80,0.0,0.0,85,0.00,,---,0.00,VWS V12.07,2015-08-29 23:20:00,
2015-08-29 19:30:00,70.3,66.2,30.00,East,80,0.0,0.0,87,0.00,,---,0.00,VWS V12.07,2015-08-29 23:30:00,
2015-08-29 19:40:00,69.9,66.2,30.01,East,80,0.0,0.0,88,0.00,,---,0.00,VWS V12.07,2015-08-29 23:40:00,
2015-08-29 19:50:00,69.4,65.7,30.01,East,80,0.0,0.0,88,0.00,,---,0.00,VWS V12.07,2015-08-29 23:50:00,
2015-08-29 20:00:00,69.1,65.4,30.01,East,80,0.0,0.0,88,0.00,,---,0.00,VWS V12.07,2015-08-30 00:00:00,
2015-08-29 20:10:00,68.8,65.4,30.01,East,80,0.0,0.0,89,0.00,,---,0.00,VWS V12.07,2015-08-30 00:10:00,
2015-08-29 20:20:00,68.4,65.0,30.02,East,80,0.0,0.0,89,0.00,,---,0.00,VWS V12.07,2015-08-30 00:20:00,
2015-08-29 20:30:00,68.3,64.9,30.02,East,80,0.0,0.0,89,0.00,,---,0.00,VWS V12.07,2015-08-30 00:30:00,
2015-08-29 20:40:00,68.1,64.7,30.02,East,80,0.0,0.0,89,0.00,,---,0.00,VWS V12.07,2015-08-30 00:40:00,
2015-08-29 20:50:00,67.9,64.5,30.02,East,80,0.0,0.0,89,0.00,,---,0.00,VWS V12.07,2015-08-30 00:50:00,
2015-08-29 21:00:00,67.8,64.8,30.02,East,80,0.0,0.0,90,0.00,,---,0.00,VWS V12.07,2015-08-30 01:00:00,
2015-08-29 21:10:00,67.6,64.2,30.02,East,80,0.0,0.0,89,0.00,,---,0.00,VWS V12.07,2015-08-30 01:10:00,
2015-08-29 21:20:00,67.6,64.2,30.04,East,80,0.0,0.0,89,0.00,,---,0.00,VWS V12.07,2015-08-30 01:20:00,
2015-08-29 21:30:00,67.4,64.4,30.04,East,80,0.0,0.0,90,0.00,,---,0.00,VWS V12.07,2015-08-30 01:30:00,
2015-08-29 21:40:00,67.3,64.0,30.03,East,80,0.0,0.0,89,0.00,,---,0.00,VWS V12.07,2015-08-30 01:40:00,
2015-08-29 21:50:00,67.1,63.8,30.03,East,80,0.0,0.0,89,0.00,,---,0.00,VWS V12.07,2015-08-30 01:50:00,
2015-08-29 22:00:00,66.9,63.6,30.03,East,80,0.0,0.0,89,0.00,,---,0.00,VWS V12.07,2015-08-30 02:00:00,
2015-08-29 22:10:00,66.9,63.6,30.03,East,80,0.0,0.0,89,0.00,,---,0.00,VWS V12.07,2015-08-30 02:10:00,
2015-08-29 22:20:00,67.3,64.6,30.03,East,80,0.0,0.0,91,0.00,,---,0.00,VWS V12.07,2015-08-30 02:20:00,
2015-08-29 22:30:00,67.3,64.3,30.03,East,83,0.0,1.0,90,0.00,,---,0.00,VWS V12.07,2015-08-30 02:30:00,
2015-08-29 22:40:00,67.3,64.3,30.02,East,83,0.0,0.0,90,0.00,,---,0.00,VWS V12.07,2015-08-30 02:40:00,
2015-08-29 22:50:00,67.3,64.6,30.01,East,83,0.0,0.0,91,0.00,,---,0.00,VWS V12.07,2015-08-30 02:50:00,
2015-08-29 23:00:00,67.3,64.3,30.01,East,83,0.0,0.0,90,0.00,,---,0.00,VWS V12.07,2015-08-30 03:00:00,
2015-08-29 23:10:00,67.1,64.1,30.02,East,83,0.0,0.0,90,0.00,,---,0.00,VWS V12.07,2015-08-30 03:10:00,
2015-08-29 23:20:00,67.1,64.4,30.01,East,83,0.0,0.0,91,0.00,,---,0.00,VWS V12.07,2015-08-30 03:20:00,
2015-08-29 23:30:00,66.9,64.2,30.01,East,83,0.0,0.0,91,0.00,,---,0.00,VWS V12.07,2015-08-30 03:30:00,
2015-08-29 23:40:00,66.8,64.4,30.01,East,83,0.0,0.0,92,0.00,,---,0.00,VWS V12.07,2015-08-30 03:40:00,
2015-08-29 23:50:00,66.8,64.4,30.01,East,83,0.0,0.0,92,0.00,,---,0.00,VWS V12.07,2015-08-30 03:50:00,